| time (UTC) | temp C | wind direction | speed KPH | gust KPH | rain 1hr cm | rain 24hr cm | rain mn cm | humidity % | barometer mb |
| 20260503021533 | 3 | 236 | 12.9 | 0.0 | 0.00 | 0.00 | 0.00 | 63 | 985.5 |
| 20260503020101 | 3 | 238 | 11.3 | 0.0 | 0.00 | 0.00 | 0.00 | 63 | 985.5 |
| 20260503014533 | 4 | 240 | 12.9 | 0.0 | 0.00 | 0.00 | 0.00 | 58 | 985.1 |
| 20260503013051 | 4 | 243 | 11.3 | 0.0 | 0.00 | 0.00 | 0.00 | 58 | 985.1 |
| 20260503011533 | 5 | 237 | 9.7 | 0.0 | 0.00 | 0.00 | 0.00 | 58 | 985.1 |
| 20260503010059 | 5 | 238 | 9.7 | 0.0 | 0.00 | 0.00 | 0.00 | 58 | 985.1 |
| 20260503004533 | 5 | 236 | 9.7 | 0.0 | 0.00 | 0.00 | 0.00 | 46 | 985.9 |
| 20260503003047 | 6 | 238 | 8.0 | 0.0 | 0.00 | 0.00 | 0.00 | 46 | 986.2 |
| 20260503001534 | 6 | 246 | 8.0 | 0.0 | 0.00 | 0.00 | 0.00 | 46 | 986.2 |
| 20260503000100 | 7 | 252 | 8.0 | 0.0 | 0.00 | 0.00 | 0.00 | 46 | 986.2 |
| 20260502234534 | 7 | 262 | 9.7 | 0.0 | 0.00 | 0.00 | 0.00 | 39 | 985.9 |
| 20260502233046 | 7 | 266 | 12.9 | 0.0 | 0.00 | 0.00 | 0.00 | 39 | 986.0 |
| 20260502231534 | 7 | 266 | 14.5 | 0.0 | 0.00 | 0.00 | 0.00 | 39 | 986.0 |
| 20260502230100 | 8 | 266 | 16.1 | 0.0 | 0.00 | 0.00 | 0.00 | 39 | 986.0 |
| 20260502224534 | 8 | 268 | 17.7 | 0.0 | 0.00 | 0.00 | 0.00 | 38 | 986.3 |
| 20260502223052 | 8 | 269 | 19.3 | 0.0 | 0.00 | 0.00 | 0.00 | 38 | 987.0 |
| 20260502221534 | 8 | 268 | 19.3 | 0.0 | 0.00 | 0.00 | 0.00 | 38 | 987.0 |
| 20260502220059 | 8 | 267 | 19.3 | 0.0 | 0.00 | 0.00 | 0.00 | 38 | 987.0 |
| 20260502214534 | 8 | 268 | 19.3 | 0.0 | 0.00 | 0.00 | 0.00 | 38 | 987.1 |
| 20260502213052 | 8 | 261 | 17.7 | 0.0 | 0.00 | 0.00 | 0.00 | 40 | 986.9 |
| 20260502211534 | 8 | 259 | 17.7 | 0.0 | 0.00 | 0.00 | 0.00 | 40 | 986.8 |
| 20260502204534 | 8 | 259 | 19.3 | 0.0 | 0.00 | 0.00 | 0.00 | 37 | 987.2 |
| 20260502203052 | 8 | 264 | 17.7 | 0.0 | 0.00 | 0.00 | 0.00 | 36 | 987.7 |
| 20260502201534 | 8 | 266 | 17.7 | 0.0 | 0.00 | 0.00 | 0.00 | 36 | 987.7 |
| 20260502200059 | 8 | 269 | 17.7 | 0.0 | 0.00 | 0.00 | 0.00 | 36 | 987.7 |
| 20260502194534 | 8 | 270 | 17.7 | 0.0 | 0.00 | 0.00 | 0.00 | 40 | 987.9 |
| 20260502193047 | 8 | 271 | 17.7 | 0.0 | 0.00 | 0.00 | 0.00 | 40 | 987.9 |
| 20260502191534 | 8 | 274 | 19.3 | 0.0 | 0.00 | 0.00 | 0.00 | 40 | 987.9 |
| 20260502190100 | 8 | 271 | 17.7 | 0.0 | 0.00 | 0.00 | 0.00 | 40 | 987.9 |
| 20260502184534 | 7 | 272 | 17.7 | 0.0 | 0.00 | 0.00 | 0.00 | 44 | 988.0 |
| 20260502183053 | 7 | 276 | 16.1 | 0.0 | 0.00 | 0.00 | 0.00 | 40 | 988.0 |
| 20260502181533 | 8 | 285 | 14.5 | 0.0 | 0.00 | 0.00 | 0.00 | 40 | 988.0 |
| 20260502180104 | 8 | 286 | 14.5 | 0.0 | 0.00 | 0.00 | 0.00 | 40 | 988.0 |
| 20260502163054 | 7 | 279 | 14.5 | 0.0 | 0.00 | 0.00 | 0.00 | 41 | 987.4 |
| 20260502161533 | 6 | 276 | 12.9 | 0.0 | 0.00 | 0.00 | 0.00 | 41 | 987.4 |
| 20260502151534 | 5 | 286 | 11.3 | 0.0 | 0.00 | 0.00 | 0.00 | 49 | 987.6 |
| 20260502150105 | 5 | 289 | 11.3 | 0.0 | 0.00 | 0.00 | 0.00 | 49 | 987.6 |
| 20260502140106 | 3 | 318 | 9.7 | 0.0 | 0.00 | 0.00 | 0.00 | 56 | 988.3 |
| 20260502123051 | 1 | 329 | 6.4 | 0.0 | 0.00 | 0.00 | 0.00 | 79 | 988.2 |
| 20260502121534 | 1 | 330 | 6.4 | 0.0 | 0.00 | 0.00 | 0.00 | 79 | 988.2 |
| 20260502120108 | 0 | 326 | 8.0 | 0.0 | 0.00 | 0.00 | 0.00 | 79 | 988.2 |
| 20260502114534 | 0 | 322 | 8.0 | 0.0 | 0.00 | 0.00 | 0.00 | 85 | 988.0 |
| 20260502113056 | 0 | 317 | 4.8 | 0.0 | 0.00 | 0.00 | 0.00 | 86 | 987.8 |
| 20260502111534 | 0 | 318 | 4.8 | 0.0 | 0.00 | 0.00 | 0.00 | 86 | 987.8 |
| 20260502104533 | 0 | 308 | 4.8 | 0.0 | 0.00 | 0.00 | 0.00 | 85 | 987.6 |
| 20260502103052 | 0 | 292 | 4.8 | 0.0 | 0.00 | 0.00 | 0.00 | 88 | 987.9 |
| 20260502101534 | 0 | 293 | 4.8 | 0.0 | 0.00 | 0.00 | 0.00 | 88 | 987.9 |
| 20260502091533 | 0 | 302 | 4.8 | 0.0 | 0.00 | 0.00 | 0.00 | 88 | 987.4 |
| 20260502080103 | 0 | 317 | 6.4 | 0.0 | 0.00 | 0.00 | 0.00 | 82 | 987.2 |
| 20260502071533 | 0 | 321 | 6.4 | 0.0 | 0.00 | 0.00 | 0.00 | 74 | 986.7 |
| 20260502070100 | 0 | 322 | 8.0 | 0.0 | 0.00 | 0.00 | 0.00 | 74 | 986.7 |
| 20260502064534 | 0 | 315 | 8.0 | 0.0 | 0.00 | 0.00 | 0.00 | 72 | 987.8 |
| 20260502063053 | 0 | 311 | 6.4 | 0.0 | 0.00 | 0.00 | 0.00 | 71 | 987.7 |
| 20260502061533 | 0 | 313 | 6.4 | 0.0 | 0.00 | 0.00 | 0.00 | 71 | 987.6 |
| 20260502060111 | 0 | 317 | 8.0 | 0.0 | 0.00 | 0.00 | 0.00 | 71 | 987.6 |
| 20260502054534 | 0 | 320 | 8.0 | 0.0 | 0.00 | 0.00 | 0.00 | 71 | 986.9 |
| 20260502053052 | 0 | 319 | 8.0 | 0.0 | 0.00 | 0.00 | 0.00 | 73 | 987.3 |
| 20260502051533 | 0 | 320 | 8.0 | 0.0 | 0.00 | 0.00 | 0.00 | 73 | 987.3 |
| 20260502044534 | 1 | 322 | 9.7 | 0.0 | 0.00 | 0.00 | 0.00 | 70 | 986.8 |
| 20260502043051 | 1 | 322 | 8.0 | 0.0 | 0.00 | 0.00 | 0.00 | 73 | 987.0 |
| 20260502041533 | 1 | 325 | 8.0 | 0.0 | 0.00 | 0.00 | 0.00 | 73 | 987.0 |
| 20260502034533 | 1 | 321 | 9.7 | 0.0 | 0.00 | 0.00 | 0.00 | 61 | 986.6 |
| 20260502033053 | 1 | 340 | 8.0 | 0.0 | 0.00 | 0.00 | 0.00 | 64 | 986.0 |
| 20260502031533 | 1 | 342 | 9.7 | 0.0 | 0.00 | 0.00 | 0.00 | 64 | 986.0 |
| 20260502030101 | 1 | 331 | 12.9 | 0.0 | 0.00 | 0.00 | 0.00 | 64 | 986.0 |
| 20260502024533 | 2 | 317 | 12.9 | 0.0 | 0.00 | 0.00 | 0.00 | 59 | 985.5 |
| 20260502023051 | 2 | 315 | 12.9 | 0.0 | 0.00 | 0.00 | 0.00 | 64 | 986.5 |